Find Starlink 30225

NORAD ID: 57449 Int'l Des: 2023-105 Owner: SPXS Country: US Constellation: starlink operational
LEOCIRCULAR

当前视图

正在加载3D地球...

About Starlink 30225

Starlink 30225 (NORAD 57449) is a starlink constellation satellite (v2 mini) launched Jul 24, 2023 by SPXS of US. It operates in LEO, CIRCULAR orbit with a mass of 730.00 kg.

关于 Starlink 30225

正在加载描述...

即将过境

Passes for default location (London). Set your location on the main map for personalized predictions.

高度历史

Loading altitude history...

两行轨道根数

1 57449U 23105V 26170.36800836 .00000026 00000-0 10451-4 0 9993
2 57449 43.0059 48.9015 0001162 258.5809 101.4913 15.27587547161150
Epoch: Jun 19, 2026 • Age: 21 hours

当前状态

高度 483.9 km
速度 7.63 km/s
星下点 28.61°N, 167.41°W
发射日期 Jul 24, 2023
运行时间 2.9 years
类型 internet

技术详情

分类 Payload
质量 730.00 kg
干质量 700.00 kg
总质量 730.00 kg
长度 0.30 m
直径 4.10 m
跨度 29.00 m
形状 Box + pan
制造商 SPXS
平台类型 Starlink V2M
阶段状态 In Orbit
所有者/国家 SPXS/US

Most Searched